User: anonymous   Login
Location: ??
(35.5052°N, 139.7262°E)
Time: 20:13:11
(UTC+00:00)
Language:

CZ-2C R/B - Orbit

View from above orbital plane
View from above orbital plane
View from above satellite
View from above satellite

Ground track
Ground track

The orbit data is extracted from the following two-line orbital elements,

1 28222U 04012C   21261.48567059  .00000827  00000-0  52513-4 0  9996
2 28222  97.7375 233.2777 0044804 263.0880 210.7234 15.11052701955140
Epoch (UTC): 18 September 2021 11:39:21
Eccentricity: 0.0044804
inclination: 97.7375°
perigee height: 502 km
apogee height: 564 km
right ascension of ascending node: 233.2777°
argument of perigee: 263.0880°
revolutions per day: 15.11052701
mean anomaly at epoch: 210.7234°
orbit number at epoch: 95514

The dashed part of the orbit path shows where the satellite is in the earth's shadow,  

DLR